Frankfort, MI

3:03 PM EDT on June 25, 2017 (GMT -0400)
Frankfort

Weather History for KFKS - November, 2012

Change the Weather History Date:

Saturday, November 10, 2012

  Actual Average (KMBL) Record (KMBL)
Temperature  
Mean Temperature 54 °F -  
Max Temperature 64 °F 46 °F 64 °F (1999)
Min Temperature 43 °F 34 °F 22 °F (1981)
Degree Days  
Heating Degree Days 12    
Growing Degree Days 4 (Base 50)    
Moisture  
Dew Point 43 °F    
Average Humidity 77    
Maximum Humidity 88    
Minimum Humidity 52    
Precipitation  
Precipitation 0.00 in - - ()
Sea Level Pressure  
Sea Level Pressure 29.96 in    
Wind  
Wind Speed 8 mph (SE)    
Max Wind Speed 18 mph    
Max Gust Speed 31 mph    
Visibility 6 miles    
Events Rain    
Averages and records for this station are not official NWS values.
T = Trace of Precipitation, MM = Missing Value Source: NWS Daily Summary

Daily Weather History Graph

Daily Weather History Graph

Search for Another Location

Airport or City:

Trip Planner

Search our weather history database for the weather conditions in past years. The results will help you decide how hot, cold, wet, or windy it might be!

Date:

Astronomy

Nov. 10, 2012 Rise Set
Actual Time 7:35 AM EST 5:21 PM EST
Civil Twilight 7:04 AM EST 5:52 PM EST
Nautical Twilight 6:29 AM EST 6:27 PM EST
Astronomical Twilight 5:54 AM EST 7:02 PM EST
Moon 3:31 AM EST (11/10) 3:14 PM EST (11/10)
Length of Visible Light 10h 48m
Length of Day
9h 46m
Waning Crescent, 14% of the Moon is Illuminated
Nov 10
Waning Crescent
Nov 13
New
Nov 20
First Quarter
Nov 28
Full
Dec 6
Last Quarter

Hourly Weather History & Observations

Time (EST) Temp. Windchill Dew Point Humidity Pressure Visibility Wind Dir Wind Speed Gust Speed Precip Events Conditions
12:14 AM 45.3 °F 43.0 °F 40.1 °F 82% 30.10 in 5.0 mi East 4.6 mph - N/A   Haze
12:34 AM 45.3 °F 42.3 °F 39.9 °F 81% 30.10 in 7.0 mi East 5.8 mph - N/A   Overcast
12:54 AM 45.3 °F 43.0 °F 39.6 °F 80% 30.10 in 7.0 mi East 4.6 mph - N/A   Overcast
1:15 AM 45.1 °F 42.0 °F 39.6 °F 81% 30.10 in 7.0 mi East 5.8 mph - N/A   Overcast
1:35 AM 45.0 °F 42.6 °F 39.4 °F 81% 30.10 in 7.0 mi East 4.6 mph - N/A   Overcast
1:55 AM 44.8 °F 41.6 °F 39.4 °F 81% 30.09 in 7.0 mi East 5.8 mph - N/A   Overcast
2:15 AM 45.0 °F 41.8 °F 39.2 °F 80% 30.10 in 7.0 mi East 5.8 mph - N/A   Overcast
2:35 AM 45.0 °F 41.8 °F 39.2 °F 80% 30.10 in 7.0 mi East 5.8 mph - N/A   Overcast
2:55 AM 45.1 °F 41.4 °F 39.2 °F 80% 30.09 in 7.0 mi East 6.9 mph - N/A   Overcast
3:15 AM 45.0 °F 41.2 °F 39.2 °F 80% 30.09 in 7.0 mi East 6.9 mph - N/A   Overcast
3:35 AM 45.1 °F 43.7 °F 39.2 °F 80% 30.08 in 7.0 mi ESE 3.5 mph - N/A   Overcast
3:56 AM 45.0 °F 41.2 °F 38.8 °F 79% 30.07 in 7.0 mi East 6.9 mph - N/A   Overcast
4:16 AM 45.0 °F 41.2 °F 38.8 °F 79% 30.07 in 7.0 mi East 6.9 mph - N/A   Overcast
4:36 AM 45.1 °F 41.4 °F 38.8 °F 79% 30.06 in 7.0 mi East 6.9 mph - N/A   Overcast
4:56 AM 45.5 °F 41.8 °F 38.7 °F 77% 30.07 in 7.0 mi ESE 6.9 mph - N/A   Overcast
5:16 AM 45.7 °F 42.7 °F 38.7 °F 76% 30.07 in 7.0 mi East 5.8 mph - N/A   Overcast
5:36 AM 45.9 °F 42.9 °F 38.5 °F 75% 30.06 in 7.0 mi East 5.8 mph - N/A   Overcast
5:56 AM 46.0 °F 42.5 °F 38.3 °F 74% 30.05 in 7.0 mi ESE 6.9 mph - N/A   Overcast
6:11 AM 46.0 °F 41.4 °F 38.3 °F 74% 30.04 in 7.0 mi East 9.2 mph - N/A   Overcast
6:52 AM 45.0 °F 41.8 °F 39.4 °F 81% 30.05 in 5.0 mi ESE 5.8 mph - N/A Rain Light Rain
7:12 AM 44.1 °F 39.0 °F 40.1 °F 86% 30.06 in 4.0 mi East 9.2 mph - N/A Rain Rain
7:32 AM 43.7 °F 40.3 °F 40.3 °F 88% 30.05 in 4.0 mi East 5.8 mph - N/A Rain Light Rain
7:52 AM 44.1 °F 42.5 °F 40.5 °F 87% 30.07 in 4.0 mi ESE 3.5 mph - N/A   Overcast
8:12 AM 44.1 °F 42.5 °F 40.5 °F 87% 30.05 in 2.5 mi ESE 3.5 mph - N/A Rain Light Rain
8:32 AM 44.2 °F 39.7 °F 41.0 °F 88% 30.05 in 2.5 mi ESE 8.1 mph - N/A Rain Light Rain
8:52 AM 44.6 °F 39.7 °F 41.0 °F 87% 30.05 in 2.5 mi ESE 9.2 mph - N/A   Overcast
9:12 AM 44.6 °F 40.2 °F 41.0 °F 87% 30.04 in 3.0 mi ESE 8.1 mph 16.1 mph N/A   Overcast
9:33 AM 45.0 °F 40.6 °F 41.0 °F 86% 30.04 in 3.0 mi ESE 8.1 mph - N/A   Overcast
9:53 AM 45.1 °F 40.3 °F 41.0 °F 85% 30.04 in 3.0 mi ESE 9.2 mph - N/A   Overcast
10:13 AM 45.5 °F 42.5 °F 41.2 °F 85% 30.03 in 3.0 mi ESE 5.8 mph - N/A   Haze
10:33 AM 46.0 °F 41.4 °F 41.4 °F 84% 30.01 in 3.0 mi ESE 9.2 mph - N/A   Overcast
10:53 AM 46.4 °F 41.9 °F 41.9 °F 84% 30.00 in 3.0 mi ESE 9.2 mph 18.4 mph N/A   Overcast
11:13 AM 47.3 °F - 42.1 °F 82% 30.00 in 4.0 mi ESE 12.7 mph 19.6 mph N/A   Haze
11:33 AM 47.7 °F - 42.3 °F 82% 30.01 in 4.0 mi ESE 9.2 mph - N/A   Haze
11:53 AM 48.2 °F - 42.4 °F 80% 29.98 in 4.0 mi ESE 6.9 mph - N/A   Haze
12:13 PM 48.2 °F - 42.4 °F 80% 29.97 in 4.0 mi ESE 6.9 mph - N/A   Haze
12:34 PM 48.7 °F - 42.8 °F 80% 29.95 in 4.0 mi ESE 9.2 mph 16.1 mph N/A   Haze
12:54 PM 49.5 °F - 43.0 °F 78% 29.93 in 4.0 mi SE 9.2 mph - N/A   Haze
1:14 PM 50.9 °F - 43.3 °F 75% 29.91 in 5.0 mi ESE 11.5 mph 18.4 mph N/A   Haze
1:34 PM 51.4 °F - 43.3 °F 74% 29.90 in 5.0 mi SE 9.2 mph 18.4 mph N/A   Haze
1:54 PM 52.3 °F - 43.7 °F 72% 29.91 in 5.0 mi SE 10.4 mph - N/A   Haze
2:14 PM 53.2 °F - 44.6 °F 72% 29.90 in 7.0 mi SE 6.9 mph 18.4 mph N/A   Overcast
2:34 PM 53.8 °F - 45.1 °F 73% 29.90 in 7.0 mi SSE 9.2 mph - N/A   Overcast
2:54 PM 54.1 °F - 45.7 °F 73% 29.89 in 7.0 mi SSE 6.9 mph - N/A   Overcast
3:15 PM 54.9 °F - 46.2 °F 73% 29.88 in 7.0 mi SSE 9.2 mph - N/A   Mostly Cloudy
3:35 PM 54.7 °F - 46.0 °F 73% 29.87 in 7.0 mi SSE 12.7 mph 17.3 mph N/A   Scattered Clouds
3:55 PM 54.5 °F - 46.0 °F 73% 29.87 in 7.0 mi SE 8.1 mph - N/A   Scattered Clouds
4:15 PM 54.5 °F - 45.9 °F 73% 29.87 in 7.0 mi SE 13.8 mph 18.4 mph N/A   Scattered Clouds
4:35 PM 54.5 °F - 45.7 °F 72% 29.87 in 7.0 mi SE 11.5 mph - N/A   Mostly Cloudy
4:55 PM 54.5 °F - 45.5 °F 72% 29.87 in 7.0 mi SE 12.7 mph 19.6 mph N/A   Scattered Clouds
5:15 PM 54.5 °F - 45.3 °F 71% 29.87 in 7.0 mi SSE 10.4 mph 19.6 mph N/A   Clear
5:30 PM 54.0 °F - 45.3 °F 73% 29.87 in 7.0 mi SSE 8.1 mph 17.3 mph N/A   Clear
5:52 PM 53.1 °F - 45.0 °F 74% 29.86 in 7.0 mi SE 10.4 mph 17.3 mph N/A   Clear
6:12 PM 52.7 °F - 45.0 °F 75% 29.86 in 7.0 mi SE 8.1 mph - N/A   Clear
6:32 PM 52.2 °F - 44.8 °F 76% 29.86 in 7.0 mi SSE 11.5 mph 16.1 mph N/A   Scattered Clouds
6:53 PM 52.3 °F - 45.0 °F 76% 29.86 in 7.0 mi SE 12.7 mph 18.4 mph N/A   Scattered Clouds
7:13 PM 52.7 °F - 45.1 °F 75% 29.86 in 7.0 mi SSE 10.4 mph 17.3 mph N/A   Clear
7:33 PM 53.2 °F - 45.3 °F 74% 29.86 in 7.0 mi SSE 13.8 mph 20.7 mph N/A   Clear
7:53 PM 53.6 °F - 45.7 °F 75% 29.86 in 10.0 mi SSE 11.5 mph 17.3 mph N/A   Clear
8:13 PM 54.1 °F - 46.0 °F 74% 29.85 in 10.0 mi SSE 9.2 mph - N/A   Clear
8:33 PM 54.5 °F - 46.4 °F 74% 29.85 in 10.0 mi SSE 10.4 mph - N/A   Clear
8:54 PM 54.7 °F - 46.6 °F 74% 29.85 in 10.0 mi SSE 10.4 mph - N/A   Clear
9:14 PM 55.2 °F - 46.8 °F 73% 29.84 in 10.0 mi SSE 11.5 mph - N/A   Clear
9:34 PM 55.9 °F - 47.5 °F 73% 29.83 in 10.0 mi SSE 10.4 mph 17.3 mph N/A   Scattered Clouds
9:54 PM 57.0 °F - 48.0 °F 72% 29.82 in 10.0 mi SSE 12.7 mph - N/A   Clear
10:14 PM 57.4 °F - 48.2 °F 71% 29.83 in 10.0 mi South 9.2 mph - N/A   Scattered Clouds
10:35 PM 59.7 °F - 48.4 °F 66% 29.82 in 10.0 mi SSE 15.0 mph 19.6 mph N/A   Scattered Clouds
10:55 PM 61.3 °F - 48.2 °F 62% 29.80 in 10.0 mi South 17.3 mph 31.1 mph N/A   Mostly Cloudy
11:15 PM 61.9 °F - 48.2 °F 61% 29.82 in 10.0 mi South 13.8 mph 23.0 mph N/A   Mostly Cloudy
11:35 PM 64.4 °F - 47.3 °F 54% 29.83 in 10.0 mi SSW 13.8 mph 20.7 mph N/A   Mostly Cloudy
11:55 PM 64.6 °F - 46.8 °F 52% 29.83 in 10.0 mi South 18.4 mph 26.5 mph N/A   Overcast